COSMOS 1275 DEB, 42233

Orbit data source: Space-Track

COSMOS 1275 DEB, 42233 is space debris in LEO originally from a launch on Thu, 04 Jun 1981 UTC launched from the Plesetsk Missile And Space Complex (PKMTR). Debris objects in space refer to the collection of defunct objects orbiting the Earth. Examples of debris include non-operational satellites, rocket bodies, and fragments generated from explosions, collisions, or faulty payload assembly.

Loading next visibility...
Identifier
42233, 1981-053UZ
Orbit
LEO
Country
Flag of CISCIS
Related business
Manufacturer
Unknown
Mission
Spacecraft
Bus & Motor
Unknown
Mass
Unknown
Launch date (UTC)
1981-06-04 (44 years ago)
Launch vehicle
Unknown
Launch site
Plesetsk Missile And Space Complex (PKMTR)
Object type
Payload
Rocket body
Debris
Shape & HBR
Unknown
Radar Cross Section
Small (<0.1 m²)

Expand to show TLE details & history
Last TLE update: 1 day ago

TLE from 1 day ago
0 COSMOS 1275 DEB
1 42233U 81053UZ  25257.06471218  .00000437  00000-0  47685-3 0  9998
2 42233  83.0436 194.7554 0129944 185.4906 174.4831 13.66869141542450
Epoch: 2025-09-14T01:33Z
TLE epoch observation values (Epoch: 2025-09-14T01:33:11.132Z)
Latitude
0.00003°
Longitude
178.16994°
Altitude
1,109.324 km
Speed
7.25 km/s
True Right ascension
12h 59m 01s
True Declination
0° 00' 00"
Sunlit
Object was in daylight at epoch
Visualization orbit readout
Latitude
Unknown
Longitude
Unknown
Altitude
Unknown
Speed
Unknown
Apparent Right ascension
Unknown
Apparent Declination
Unknown
Sunlit
N/A
Visualization observer readout
Local Sidereal Time
23:55:40
Azimuth
Unknown
Elevation
Unknown
Doppler factor
Unknown
Orbital elements
Apogee altitude
1,103.966 km
Perigee altitude
912.01 km
Semi-major axis
7,386.125 km
Eccentricity
0.01299
Inclination
83.0436°
RAAN
194.7554°
Arg. of periapsis
185.4906°
True anomaly
174.62398°
Mean anomaly
174.4831°
Eccentric anomaly
174.55376°
Mean motion
3.41915 °/min
Orbital period
105.29 mins
BSTAR
0.00047685
Loading maneuver chart data...
Computing Atmospheric mass density...
Loading historical data...
Loading historical data...
Loading historical data...
Loading historical data...
Loading historical data...
Loading historical data...
Loading historical data...

Documentation

Showing up to 5 results
|